Flag for Greece Weather past 2 weeks in Thessaloniki, Greece

Now
79 °F

Passing clouds.


Feels Like: 80 °F
Forecast: 67 / 94 °F
Wind: 8 mph from Northwest

Location: Thessaloniki Airport

Current Time: Aug 20, 2014 at 12:39:07 PM

Latest Report: Aug 20, 2014 at 11:20 AM


Visibility: N/A

Pressure: 30.01 "Hg

Humidity: 58%

Dew point: 63 °F

Location of ThessalonikiLocation

Historic Weather in Thessaloniki — Graph

°F

Thessaloniki temperature yesterday

Maximum temperature yesterday: 86 °F (at 2:20 PM)
Minimum temperature yesterday: 63 °F (at 5:50 AM)
Average temperature yesterday: 75 °F

Past Weeks' High & Low Weather Summary

 TemperatureHumidityPressure
High97 °F (Aug 13, 4:20 PM)94% (Aug 7, 2:50 AM)30.04 "Hg (Aug 7, 2:50 AM)
Low63 °F (Aug 19, 5:50 AM)18% (Aug 18, 6:50 PM)29.68 "Hg (Aug 6, 2:50 PM)
Average80 °F53%29.85 "Hg
* Reported Aug 5 11:20 AM — Aug 20 11:20 AM, Thessaloniki, Weather by CustomWeather, © 2014

Note: Actual official high and low records may vary slightly from our data, if they occured in-between our weather recording intervals... More about our weather records

Advertising

Thessaloniki weather history for previous 24 hours

 ConditionsComfort  
Time TempWeatherWind HumidityBarometerVisibility
11:20 AM
Aug 20
79 °FPassing clouds.8 mph58%30.01 "HgN/A
10:50 AM79 °FPassing clouds.8 mph58%30.01 "HgN/A
10:20 AM77 °FPassing clouds.7 mph61%30.01 "HgN/A
9:50 AM79 °FSunny.5 mph51%30.01 "Hg10 mi
9:20 AM77 °FSunny.2 mph44%30.04 "Hg10 mi
8:50 AM75 °FSunny.3 mph50%30.04 "Hg10 mi
8:20 AM72 °FPassing clouds.5 mph57%30.01 "HgN/A
7:50 AM68 °FPassing clouds.6 mph64%30.01 "HgN/A
7:20 AM66 °FClear.6 mph68%30.01 "Hg10 mi
5:20 AM66 °FClear.6 mph78%30.01 "Hg10 mi
4:20 AM66 °FClear.6 mph78%30.01 "Hg10 mi
3:50 AM68 °FClear.6 mph78%29.98 "Hg10 mi
3:20 AM68 °FClear.6 mph78%29.98 "Hg10 mi
2:50 AM66 °FClear.5 mph83%29.98 "Hg10 mi
2:20 AM68 °FClear.3 mph78%30.01 "Hg10 mi
1:50 AM70 °FClear.6 mph73%30.01 "Hg10 mi
1:20 AM70 °FClear.6 mph73%30.01 "Hg10 mi
12:50 AM70 °FClear.6 mph73%30.04 "Hg10 mi
12:20 AM72 °FClear.6 mph69%30.04 "Hg10 mi
11:50 PM
Aug 19
72 °FClear.6 mph69%30.01 "Hg10 mi
11:20 PM73 °FClear.3 mph65%30.01 "Hg10 mi
10:50 PM73 °FClear.6 mph65%30.01 "Hg10 mi
10:20 PM75 °FClear.5 mph61%30.01 "Hg10 mi
9:50 PM77 °FClear.7 mph57%30.01 "Hg10 mi
9:20 PM79 °FClear.8 mph54%30.01 "Hg10 mi
8:50 PM79 °FSunny.10 mph54%29.98 "Hg10 mi
8:20 PM79 °FSunny.10 mph54%29.98 "Hg10 mi
7:50 PM81 °FSunny.12 mph51%29.98 "Hg10 mi
7:20 PM82 °FSunny.13 mph45%29.98 "Hg10 mi
6:50 PM84 °FSunny.14 mph40%29.95 "Hg10 mi
6:20 PM86 °FPassing clouds.13 mph38%29.95 "HgN/A
5:50 PM86 °FPassing clouds.10 mph38%29.95 "HgN/A
5:20 PM86 °FPassing clouds.8 mph35%29.98 "HgN/A
4:50 PM86 °FPassing clouds.7 mph35%29.98 "HgN/A
4:20 PM86 °FPassing clouds.8 mph33%29.98 "HgN/A
3:50 PM86 °FPassing clouds.9 mph33%29.98 "HgN/A
3:20 PM86 °FPassing clouds.10 mph33%29.98 "HgN/A
2:50 PM86 °FPassing clouds.9 mph33%29.98 "HgN/A
2:20 PM86 °FPassing clouds.10 mph38%29.98 "HgN/A
1:50 PM82 °FPassing clouds.10 mph45%30.01 "HgN/A
1:20 PM81 °FPassing clouds.10 mph51%30.01 "HgN/A
12:50 PM81 °FPassing clouds.9 mph51%30.01 "HgN/A
12:20 PM81 °FPassing clouds.8 mph51%30.01 "HgN/A
Weather by CustomWeather, © 2014

See weather overviewHow to use our weather pages